LOT789 EPWA-EETN

Flight info

Callsign LOT789
Flight time 1h 18m
Altitude 35000
Route BAMSO Z182 ASLUX DCT BOKSU DCT GUNTA DCT KEMET
Aircraft B738/M-SDE2E3FGHIJ1RWXY/LB1

Departure

Time 2026-05-05 16:35
Airport Warsaw Chopin Airport (EPWA)

Arrival

Time 2026-05-05 17:53
Airport Lennart Meri Tallinn Airport (EETN)
Time Latitude Longitude Altitude Speed Heading
2026-05-05 15:49 52.17684 20.96635 333 ft 0 kts 237°
2026-05-05 16:25 52.17690 20.96647 338 ft 2 kts 228°
2026-05-05 16:25 52.17702 20.96665 332 ft 2 kts 200°
2026-05-05 16:26 52.17723 20.96659 336 ft 0 kts 148°
2026-05-05 16:28 52.17722 20.96661 336 ft 1 kts 148°
2026-05-05 16:29 52.17707 20.96676 332 ft 6 kts 147°
2026-05-05 16:29 52.17655 20.96730 335 ft 11 kts 146°
2026-05-05 16:29 52.17593 20.96774 334 ft 10 kts 191°
2026-05-05 16:29 52.17553 20.96693 336 ft 9 kts 240°
2026-05-05 16:30 52.17520 20.96604 338 ft 9 kts 236°
2026-05-05 16:30 52.17466 20.96571 334 ft 9 kts 163°
2026-05-05 16:30 52.17404 20.96624 336 ft 13 kts 152°
2026-05-05 16:30 52.17300 20.96714 336 ft 20 kts 152°
2026-05-05 16:31 52.17156 20.96841 335 ft 26 kts 152°
2026-05-05 16:31 52.17002 20.96976 335 ft 24 kts 150°
2026-05-05 16:31 52.16857 20.97102 338 ft 23 kts 152°
2026-05-05 16:31 52.16719 20.97222 338 ft 22 kts 152°
2026-05-05 16:32 52.16609 20.97317 338 ft 10 kts 152°
2026-05-05 16:32 52.16565 20.97404 337 ft 10 kts 115°
2026-05-05 16:32 52.16534 20.97510 336 ft 11 kts 115°
2026-05-05 16:32 52.16496 20.97645 335 ft 15 kts 114°
2026-05-05 16:33 52.16450 20.97789 335 ft 12 kts 139°
2026-05-05 16:33 52.16372 20.97772 336 ft 12 kts 205°
2026-05-05 16:33 52.16305 20.97721 336 ft 5 kts 207°
2026-05-05 16:33 52.16307 20.97669 336 ft 5 kts 294°
2026-05-05 16:34 52.16322 20.97616 333 ft 6 kts 294°
2026-05-05 16:34 52.16396 20.97349 335 ft 60 kts 295°
2026-05-05 16:34 52.16674 20.96356 340 ft 130 kts 294°
2026-05-05 16:34 52.17132 20.94718 401 ft 181 kts 290°
2026-05-05 16:35 52.17648 20.92908 1364 ft 169 kts 289°
2026-05-05 16:35 52.18156 20.91124 2027 ft 186 kts 292°
2026-05-05 16:35 52.19141 20.89428 2320 ft 225 kts 328°
2026-05-05 16:35 52.20667 20.88368 2648 ft 248 kts 337°
2026-05-05 16:36 52.22248 20.87243 3453 ft 243 kts 327°
2026-05-05 16:36 52.23555 20.85426 3907 ft 260 kts 306°
2026-05-05 16:36 52.24726 20.83170 4825 ft 260 kts 308°
2026-05-05 16:36 52.25955 20.80953 5686 ft 267 kts 313°
2026-05-05 16:37 52.27573 20.79418 6583 ft 276 kts 342°
2026-05-05 16:37 52.29478 20.78954 7534 ft 277 kts 353°
2026-05-05 16:37 52.31406 20.78963 8438 ft 282 kts
2026-05-05 16:37 52.33303 20.80059 8983 ft 302 kts 34°
2026-05-05 16:38 52.34702 20.82687 9510 ft 316 kts 66°
2026-05-05 16:38 52.35132 20.86170 10154 ft 316 kts 96°
2026-05-05 16:38 52.34936 20.89868 10407 ft 339 kts 98°
2026-05-05 16:38 52.34750 20.93848 10685 ft 361 kts 96°
2026-05-05 16:39 52.34652 20.98014 11281 ft 370 kts 94°
2026-05-05 16:39 52.34617 21.02257 12023 ft 375 kts 93°
2026-05-05 16:39 52.34605 21.06543 12787 ft 379 kts 93°
2026-05-05 16:39 52.34768 21.10900 13405 ft 391 kts 81°
2026-05-05 16:40 52.35407 21.15254 14041 ft 397 kts 76°
2026-05-05 16:40 52.36107 21.19567 14818 ft 397 kts 76°
2026-05-05 16:40 52.36783 21.24004 15584 ft 398 kts 77°
2026-05-05 16:40 52.37418 21.28435 16281 ft 401 kts 78°
2026-05-05 16:41 52.37997 21.32915 16946 ft 404 kts 85°
2026-05-05 16:41 52.37908 21.37493 17596 ft 403 kts 101°
2026-05-05 16:41 52.37512 21.42047 18270 ft 406 kts 101°
2026-05-05 16:41 52.37115 21.46632 18811 ft 410 kts 100°
2026-05-05 16:42 52.36725 21.51288 19354 ft 414 kts 100°
2026-05-05 16:42 52.36347 21.55978 19910 ft 418 kts 99°
2026-05-05 16:42 52.35973 21.60718 20470 ft 421 kts 99°
2026-05-05 16:42 52.35599 21.65493 21004 ft 425 kts 99°
2026-05-05 16:43 52.35228 21.70244 21532 ft 429 kts 99°
2026-05-05 16:43 52.34847 21.75098 22044 ft 432 kts 99°
2026-05-05 16:43 52.34461 21.79993 22554 ft 436 kts 99°
2026-05-05 16:43 52.34071 21.84910 23201 ft 435 kts 99°
2026-05-05 16:44 52.33679 21.89808 23731 ft 436 kts 99°
2026-05-05 16:44 52.33317 21.94760 24113 ft 441 kts 97°
2026-05-05 16:44 52.33021 21.99775 24489 ft 445 kts 97°
2026-05-05 16:44 52.32877 22.04826 24876 ft 449 kts 86°
2026-05-05 16:45 52.33614 22.09784 25244 ft 452 kts 66°
2026-05-05 16:45 52.35243 22.14170 25643 ft 452 kts 48°
2026-05-05 16:45 52.37558 22.17616 26014 ft 451 kts 32°
2026-05-05 16:45 52.40348 22.19887 26342 ft 448 kts 14°
2026-05-05 16:46 52.43351 22.21269 26680 ft 449 kts 11°
2026-05-05 16:46 52.46390 22.22539 27001 ft 452 kts 11°
2026-05-05 16:46 52.49445 22.23782 27347 ft 454 kts 11°
2026-05-05 16:46 52.52521 22.25043 27688 ft 456 kts 11°
2026-05-05 16:47 52.55606 22.26332 28023 ft 459 kts 11°
2026-05-05 16:47 52.58706 22.27651 28343 ft 461 kts 11°
2026-05-05 16:47 52.61821 22.28995 28657 ft 464 kts 12°
2026-05-05 16:47 52.64946 22.30357 28963 ft 466 kts 12°
2026-05-05 16:48 52.68093 22.31736 29227 ft 469 kts 12°
2026-05-05 16:48 52.71258 22.33126 29529 ft 472 kts 12°
2026-05-05 16:48 52.74436 22.34525 29847 ft 473 kts 12°
2026-05-05 16:48 52.77620 22.35927 30128 ft 475 kts 12°
2026-05-05 16:49 52.80815 22.37337 30474 ft 474 kts 12°
2026-05-05 16:49 52.83995 22.38742 30912 ft 472 kts 12°
2026-05-05 16:49 52.87156 22.40141 31366 ft 469 kts 12°
2026-05-05 16:49 52.90312 22.41538 31685 ft 469 kts 12°
2026-05-05 16:50 52.93468 22.42937 31974 ft 470 kts 12°
2026-05-05 16:50 52.96627 22.44338 32339 ft 469 kts 12°
2026-05-05 16:50 52.99767 22.45735 32762 ft 467 kts 12°
2026-05-05 16:50 53.02899 22.47130 33163 ft 465 kts 11°
2026-05-05 16:51 53.06020 22.48522 33500 ft 464 kts 11°
2026-05-05 16:51 53.09134 22.49912 33814 ft 464 kts 11°
2026-05-05 16:51 53.12251 22.51306 34101 ft 464 kts 11°
2026-05-05 16:51 53.15374 22.52704 34276 ft 466 kts 11°
2026-05-05 16:52 53.18503 22.54107 34498 ft 466 kts 11°
2026-05-05 16:52 53.21628 22.55511 34792 ft 465 kts 11°
2026-05-05 16:52 53.27932 22.58352 34827 ft 472 kts 12°
2026-05-05 16:53 53.34218 22.61190 34816 ft 469 kts 12°
2026-05-05 16:53 53.40499 22.64037 34828 ft 467 kts 11°
2026-05-05 16:54 53.46753 22.66879 34832 ft 465 kts 11°
2026-05-05 16:54 53.52999 22.69725 34840 ft 465 kts 11°
2026-05-05 16:55 53.59257 22.72586 34842 ft 466 kts 11°
2026-05-05 16:55 53.65527 22.75461 34853 ft 468 kts 11°
2026-05-05 16:56 53.71819 22.78355 34856 ft 470 kts 11°
2026-05-05 16:56 53.78134 22.81270 34851 ft 471 kts 11°
2026-05-05 16:57 53.84458 22.84198 34856 ft 472 kts 11°
2026-05-05 16:57 53.90794 22.87141 34861 ft 472 kts 11°
2026-05-05 16:58 53.97134 22.90095 34866 ft 472 kts 11°
2026-05-05 16:58 54.03478 22.93060 34861 ft 473 kts 11°
2026-05-05 16:59 54.09822 22.96035 34899 ft 472 kts 11°
2026-05-05 16:59 54.16159 22.99016 34875 ft 472 kts 11°
2026-05-05 17:00 54.22472 23.01996 34879 ft 470 kts 11°
2026-05-05 17:00 54.28772 23.04976 34880 ft 469 kts 11°
2026-05-05 17:01 54.35093 23.07524 34901 ft 465 kts
2026-05-05 17:01 54.41451 23.09499 34896 ft 464 kts
2026-05-05 17:02 54.47814 23.11441 34891 ft 465 kts
2026-05-05 17:02 54.54151 23.13445 34902 ft 468 kts
2026-05-05 17:03 54.60664 23.15545 34930 ft 477 kts
2026-05-05 17:03 54.67185 23.17669 34902 ft 481 kts
2026-05-05 17:04 54.73777 23.19827 34897 ft 483 kts
2026-05-05 17:04 54.80376 23.21993 34894 ft 483 kts
2026-05-05 17:05 54.86968 23.24162 34916 ft 481 kts
2026-05-05 17:05 54.93532 23.26327 34901 ft 479 kts
2026-05-05 17:06 55.00065 23.28489 34896 ft 477 kts
2026-05-05 17:06 55.05469 23.30283 34893 ft 474 kts
2026-05-05 17:07 55.11940 23.32436 34897 ft 472 kts
2026-05-05 17:07 55.18380 23.34586 34903 ft 471 kts
2026-05-05 17:08 55.24812 23.36748 34891 ft 470 kts
2026-05-05 17:08 55.31227 23.38889 34901 ft 469 kts
2026-05-05 17:09 55.37643 23.41053 34900 ft 470 kts
2026-05-05 17:09 55.44071 23.43230 34902 ft 471 kts
2026-05-05 17:10 55.50517 23.45419 34897 ft 472 kts
2026-05-05 17:10 55.56985 23.47620 34893 ft 474 kts
2026-05-05 17:11 55.63466 23.49837 34888 ft 475 kts
2026-05-05 17:11 55.69960 23.52065 34888 ft 476 kts
2026-05-05 17:12 55.76457 23.54301 34890 ft 476 kts
2026-05-05 17:12 55.82956 23.56545 34890 ft 475 kts
2026-05-05 17:13 55.89445 23.58793 34884 ft 475 kts
2026-05-05 17:13 55.95928 23.61047 34889 ft 475 kts
2026-05-05 17:14 56.02411 23.63308 34882 ft 474 kts
2026-05-05 17:14 56.08841 23.65572 34869 ft 474 kts
2026-05-05 17:15 56.15300 23.67847 34879 ft 473 kts
2026-05-05 17:15 56.21748 23.70116 34887 ft 472 kts
2026-05-05 17:16 56.28202 23.72393 34877 ft 472 kts
2026-05-05 17:16 56.34649 23.74676 34870 ft 472 kts
2026-05-05 17:17 56.41090 23.76924 34873 ft 471 kts
2026-05-05 17:17 56.47537 23.79065 34871 ft 471 kts
2026-05-05 17:18 56.53990 23.81196 34873 ft 471 kts
2026-05-05 17:18 56.60444 23.83346 34899 ft 472 kts
2026-05-05 17:19 56.66914 23.85516 34891 ft 474 kts
2026-05-05 17:19 56.73410 23.87706 34924 ft 475 kts
2026-05-05 17:20 56.79913 23.89906 34892 ft 476 kts
2026-05-05 17:20 56.86432 23.92122 34885 ft 476 kts
2026-05-05 17:21 56.92942 23.94341 34881 ft 476 kts
2026-05-05 17:22 57.02706 23.97684 34889 ft 475 kts
2026-05-05 17:22 57.09202 23.99917 34873 ft 474 kts
2026-05-05 17:23 57.15689 24.02156 34876 ft 474 kts
2026-05-05 17:23 57.22156 24.04395 34876 ft 473 kts
2026-05-05 17:23 57.25402 24.05520 34553 ft 477 kts
2026-05-05 17:24 57.28669 24.06652 34035 ft 477 kts
2026-05-05 17:24 57.31925 24.07787 33493 ft 474 kts
2026-05-05 17:24 57.35111 24.08905 33022 ft 470 kts
2026-05-05 17:24 57.38350 24.10043 32568 ft 465 kts
2026-05-05 17:25 57.41474 24.11143 32138 ft 461 kts
2026-05-05 17:25 57.43596 24.11889 31853 ft 458 kts
2026-05-05 17:25 57.47722 24.13340 31273 ft 453 kts
2026-05-05 17:25 57.50814 24.14429 30850 ft 450 kts
2026-05-05 17:26 57.53871 24.15506 30440 ft 447 kts
2026-05-05 17:26 57.56922 24.16582 30069 ft 444 kts
2026-05-05 17:26 57.59948 24.17652 29584 ft 442 kts
2026-05-05 17:26 57.62957 24.18718 29118 ft 438 kts
2026-05-05 17:27 57.65937 24.19777 28697 ft 434 kts
2026-05-05 17:27 57.68888 24.20828 28260 ft 430 kts
2026-05-05 17:27 57.71813 24.21871 27851 ft 426 kts
2026-05-05 17:27 57.74719 24.22908 27419 ft 423 kts
2026-05-05 17:28 57.77595 24.23936 27007 ft 419 kts
2026-05-05 17:28 57.80452 24.24958 26600 ft 417 kts
2026-05-05 17:28 57.83288 24.25974 26195 ft 414 kts
2026-05-05 17:28 57.86103 24.26984 25808 ft 411 kts
2026-05-05 17:29 57.88906 24.27991 25401 ft 408 kts
2026-05-05 17:29 57.91687 24.29002 24968 ft 408 kts
2026-05-05 17:29 57.94467 24.30443 24331 ft 419 kts 10°
2026-05-05 17:29 57.97233 24.32217 23868 ft 420 kts 12°
2026-05-05 17:30 57.99977 24.34075 23460 ft 418 kts 12°
2026-05-05 17:30 58.02707 24.35939 22987 ft 416 kts 12°
2026-05-05 17:30 58.05419 24.37776 22538 ft 412 kts 12°
2026-05-05 17:30 58.08110 24.39576 22140 ft 408 kts 12°
2026-05-05 17:31 58.10778 24.41342 21775 ft 405 kts 11°
2026-05-05 17:31 58.13429 24.43083 21356 ft 402 kts 11°
2026-05-05 17:31 58.16061 24.44805 20948 ft 399 kts 11°
2026-05-05 17:31 58.18675 24.46514 20542 ft 396 kts 11°
2026-05-05 17:32 58.21268 24.48210 20169 ft 393 kts 11°
2026-05-05 17:32 58.23846 24.49898 19788 ft 391 kts 11°
2026-05-05 17:32 58.26405 24.51576 19408 ft 388 kts 11°
2026-05-05 17:32 58.28947 24.53246 19027 ft 386 kts 11°
2026-05-05 17:33 58.31474 24.54909 18651 ft 383 kts 11°
2026-05-05 17:33 58.33990 24.56567 18281 ft 381 kts 11°
2026-05-05 17:33 58.36485 24.58214 17887 ft 379 kts 11°
2026-05-05 17:33 58.38967 24.59854 17503 ft 377 kts 11°
2026-05-05 17:34 58.41437 24.61490 17095 ft 374 kts 11°
2026-05-05 17:34 58.43889 24.63117 16706 ft 372 kts 11°
2026-05-05 17:34 58.46320 24.64733 16322 ft 369 kts 12°
2026-05-05 17:34 58.48733 24.66338 15960 ft 366 kts 12°
2026-05-05 17:35 58.51129 24.67934 15596 ft 363 kts 12°
2026-05-05 17:35 58.53506 24.69520 15232 ft 361 kts 12°
2026-05-05 17:35 58.55868 24.71099 14874 ft 358 kts 12°
2026-05-05 17:35 58.58217 24.72670 14515 ft 356 kts 12°
2026-05-05 17:36 58.60550 24.74232 14160 ft 354 kts 12°
2026-05-05 17:36 58.62869 24.75787 13800 ft 352 kts 12°
2026-05-05 17:36 58.65177 24.77338 13444 ft 351 kts 12°
2026-05-05 17:36 58.67476 24.78884 13038 ft 349 kts 12°
2026-05-05 17:37 58.69762 24.80424 12654 ft 347 kts 12°
2026-05-05 17:37 58.71265 24.81437 12410 ft 346 kts 12°
2026-05-05 17:37 58.74287 24.83479 11928 ft 343 kts 13°
2026-05-05 17:37 58.76530 24.84997 11575 ft 341 kts 13°
2026-05-05 17:38 58.78759 24.86507 11225 ft 339 kts 13°
2026-05-05 17:38 58.80973 24.88009 10877 ft 337 kts 13°
2026-05-05 17:38 58.83177 24.89506 10533 ft 335 kts 13°
2026-05-05 17:38 58.85336 24.90975 10265 ft 331 kts 13°
2026-05-05 17:39 58.87506 24.92458 10124 ft 322 kts 13°
2026-05-05 17:39 58.89589 24.93884 9979 ft 314 kts 13°
2026-05-05 17:39 58.91627 24.95279 9864 ft 307 kts 13°
2026-05-05 17:39 58.93603 24.96631 9601 ft 305 kts 13°
2026-05-05 17:40 58.95597 24.97991 9291 ft 303 kts 13°
2026-05-05 17:40 58.97582 24.99348 8997 ft 301 kts 13°
2026-05-05 17:40 58.99535 25.00689 8847 ft 294 kts 13°
2026-05-05 17:40 59.01460 25.02011 8581 ft 292 kts 13°
2026-05-05 17:41 59.03370 25.03317 8313 ft 290 kts 13°
2026-05-05 17:41 59.05267 25.04615 8050 ft 288 kts 13°
2026-05-05 17:41 59.07151 25.05907 7780 ft 286 kts 12°
2026-05-05 17:41 59.09054 25.06839 7512 ft 279 kts
2026-05-05 17:42 59.10961 25.07362 7262 ft 275 kts
2026-05-05 17:42 59.12850 25.07809 7000 ft 273 kts
2026-05-05 17:42 59.14725 25.08231 6777 ft 270 kts
2026-05-05 17:42 59.16585 25.08621 6529 ft 267 kts
2026-05-05 17:43 59.18430 25.08995 6291 ft 265 kts
2026-05-05 17:43 59.20248 25.09353 6048 ft 262 kts
2026-05-05 17:43 59.22047 25.09700 5832 ft 257 kts
2026-05-05 17:43 59.23816 25.10081 5611 ft 255 kts
2026-05-05 17:44 59.25506 25.11020 5532 ft 252 kts 21°
2026-05-05 17:44 59.26932 25.12968 5418 ft 250 kts 38°
2026-05-05 17:44 59.28199 25.15265 5192 ft 248 kts 39°
2026-05-05 17:44 59.29444 25.17583 4948 ft 246 kts 40°
2026-05-05 17:45 59.30676 25.19894 4730 ft 244 kts 40°
2026-05-05 17:45 59.31887 25.22184 4518 ft 241 kts 40°
2026-05-05 17:45 59.33094 25.24468 4219 ft 242 kts 40°
2026-05-05 17:45 59.34305 25.26755 3974 ft 241 kts 40°
2026-05-05 17:46 59.35504 25.29019 3772 ft 237 kts 40°
2026-05-05 17:46 59.36662 25.31198 3721 ft 224 kts 38°
2026-05-05 17:46 59.37927 25.32743 3503 ft 210 kts 11°
2026-05-05 17:46 59.39285 25.32700 3315 ft 186 kts 332°
2026-05-05 17:47 59.40266 25.31272 3223 ft 173 kts 311°
2026-05-05 17:47 59.41085 25.29524 3083 ft 174 kts 301°
2026-05-05 17:47 59.41327 25.27328 2959 ft 170 kts 262°
2026-05-05 17:47 59.41226 25.25009 2863 ft 169 kts 275°
2026-05-05 17:48 59.41300 25.22709 2773 ft 170 kts 271°
2026-05-05 17:48 59.41297 25.20388 2659 ft 169 kts 271°
2026-05-05 17:48 59.41291 25.18096 2545 ft 167 kts 271°
2026-05-05 17:48 59.41288 25.15813 2434 ft 167 kts 271°
2026-05-05 17:49 59.41287 25.13519 2327 ft 170 kts 271°
2026-05-05 17:49 59.41287 25.11184 2239 ft 171 kts 271°
2026-05-05 17:49 59.41288 25.08865 2209 ft 168 kts 271°
2026-05-05 17:49 59.41289 25.06581 2156 ft 169 kts 271°
2026-05-05 17:50 59.41290 25.04272 1948 ft 166 kts 271°
2026-05-05 17:50 59.41292 25.02085 1740 ft 154 kts 271°
2026-05-05 17:50 59.41294 25.00045 1564 ft 144 kts 271°
2026-05-05 17:50 59.41297 24.98072 1336 ft 143 kts 271°
2026-05-05 17:51 59.41300 24.96133 1120 ft 141 kts 271°
2026-05-05 17:51 59.41303 24.94222 924 ft 141 kts 271°
2026-05-05 17:51 59.41306 24.92307 750 ft 139 kts 271°
2026-05-05 17:51 59.41308 24.90404 537 ft 139 kts 271°
2026-05-05 17:52 59.41312 24.89159 427 ft 137 kts 270°
2026-05-05 17:52 59.41311 24.87296 239 ft 136 kts 271°
2026-05-05 17:52 59.41318 24.85489 163 ft 122 kts 270°
2026-05-05 17:52 59.41322 24.84119 159 ft 79 kts 271°
2026-05-05 17:53 59.41326 24.83314 164 ft 47 kts 270°
2026-05-05 17:53 59.41326 24.82724 159 ft 40 kts 270°
2026-05-05 17:53 59.41326 24.82222 161 ft 33 kts 270°
2026-05-05 17:53 59.41327 24.81799 164 ft 29 kts 270°
2026-05-05 17:54 59.41328 24.81423 162 ft 23 kts 271°
2026-05-05 17:54 59.41330 24.81272 162 ft 2 kts 271°
2026-05-05 17:54 59.41331 24.81227 161 ft 4 kts 271°
2026-05-05 17:54 59.41331 24.81123 159 ft 14 kts 270°
2026-05-05 17:55 59.41331 24.80893 159 ft 17 kts 270°
2026-05-05 17:55 59.41350 24.80665 159 ft 17 kts 295°
2026-05-05 17:55 59.41423 24.80507 161 ft 9 kts 317°
2026-05-05 17:55 59.41456 24.80470 161 ft 5 kts 347°
2026-05-05 17:56 59.41493 24.80464 161 ft 6 kts 335°
2026-05-05 17:56 59.41523 24.80399 161 ft 9 kts 291°
2026-05-05 17:56 59.41528 24.80248 161 ft 13 kts 270°
2026-05-05 17:56 59.41546 24.80133 161 ft 8 kts 344°
2026-05-05 17:57 59.41577 24.80134 161 ft 0 kts
2026-05-05 17:57 59.41580 24.80134 161 ft 2 kts